Weather History for Rome, GA

Change the Weather History Date:

Tuesday, January 14, 2014

  Actual Average Record
Temperature  
Mean Temperature 46 °F 41 °F  
Max Temperature 59 °F 52 °F 72 °F (2007)
Min Temperature 33 °F 30 °F 12 °F (2011)
Degree Days  
Heating Degree Days 19 24  
Month to date heating degree days 396 336  
Since 1 July heating degree days 1661 1636  
Moisture  
Dew Point 42 °F    
Average Humidity 70    
Maximum Humidity 100    
Minimum Humidity 40    
Precipitation  
Precipitation 0.10 in 0.15 in 1.75 in (1999)
Month to date precipitation 3.08 1.74  
Year to date precipitation 3.08 1.74  
Snow  
Snow 0.00 in - - ()
Month to date snowfall T  
Since 1 July snowfall T  
Snow Depth 0.00 in    
Sea Level Pressure  
Sea Level Pressure 29.89 in    
Wind  
Wind Speed 3 mph (WNW)    
Max Wind Speed 13 mph    
Max Gust Speed 17 mph    
Visibility 8 miles    
Events Rain    
T = Trace of Precipitation, MM = Missing Value Source: NWS Daily Summary

Daily Weather History Graph

Daily Weather History Graph

Search for Another Location

Airport:

Trip Planner

Search our weather history database for the weather conditions in past years. The results will help you decide how hot, cold, wet, or windy it might be!

Date:

Astronomy

Jan. 14, 2014 Rise Set
Actual Time 7:46 AM EST 5:52 PM EST
Civil Twilight 7:19 AM EST 6:20 PM EST
Nautical Twilight 6:48 AM EST 6:51 PM EST
Astronomical Twilight 6:18 AM EST 7:21 PM EST
Moon 4:56 PM EST (1/14) 6:21 AM EST (1/14)
Length of Visible Light 11h 00m
Length of Day
10h 06m
Waxing Gibbous, 98% of the Moon is Illuminated
Jan 14
Waxing Gibbous
Jan 15
Full
Jan 24
Last Quarter
Jan 30
New
Feb 6
First Quarter

Hourly Weather History & Observations

Time (EST) Temp. Windchill Dew Point Humidity Pressure Visibility Wind Dir Wind Speed Gust Speed Precip Events Conditions
12:53 AM 48.0 °F - 48.0 °F 100% 29.83 in 5.0 mi Calm Calm - 0.02 in   Overcast
1:53 AM 48.0 °F - 46.9 °F 96% 29.81 in 3.0 mi Calm Calm - 0.00 in   Overcast
2:00 AM 48.2 °F - 48.2 °F 100% 29.82 in 2.0 mi Calm Calm - N/A   Overcast
2:10 AM 46.4 °F - 46.4 °F 100% 29.82 in 1.5 mi Calm Calm - N/A   Overcast
2:53 AM 48.0 °F - 48.0 °F 100% 29.81 in 1.8 mi Calm Calm - 0.05 in Rain Rain
3:01 AM 48.2 °F - 48.2 °F 100% 29.82 in 2.5 mi Calm Calm - 0.01 in Rain Light Rain
3:06 AM 48.2 °F - 48.2 °F 100% 29.82 in 3.0 mi Calm Calm - 0.02 in Rain Light Rain
3:24 AM 48.2 °F - 48.2 °F 100% 29.82 in 2.5 mi Calm Calm - 0.02 in Rain Light Rain
3:32 AM 48.2 °F - 48.2 °F 100% 29.82 in 3.0 mi Calm Calm - 0.02 in Rain Light Rain
3:43 AM 48.2 °F - 48.2 °F 100% 29.82 in 2.5 mi Calm Calm - 0.02 in Rain Light Rain
3:53 AM 48.0 °F - 46.9 °F 96% 29.81 in 4.0 mi Calm Calm - 0.03 in Rain Light Rain
4:03 AM 48.2 °F - 48.2 °F 100% 29.82 in 2.5 mi Calm Calm - 0.00 in   Overcast
4:18 AM 48.2 °F - 48.2 °F 100% 29.82 in 5.0 mi Calm Calm - 0.00 in   Overcast
4:53 AM 50.0 °F - 48.9 °F 96% 29.82 in 10.0 mi WNW 10.4 mph 17.3 mph 0.00 in   Overcast
5:17 AM 50.0 °F - 48.2 °F 94% 29.84 in 10.0 mi NNW 5.8 mph - 0.00 in   Overcast
5:53 AM 48.0 °F - 46.9 °F 96% 29.83 in 10.0 mi North 5.8 mph - 0.00 in   Mostly Cloudy
6:53 AM 46.0 °F 43.1 °F 45.0 °F 96% 29.89 in 10.0 mi West 5.8 mph - N/A   Partly Cloudy
7:53 AM 46.0 °F 42.5 °F 41.0 °F 83% 29.92 in 10.0 mi NW 6.9 mph - N/A   Clear
8:53 AM 45.0 °F - 43.0 °F 93% 29.94 in 10.0 mi Calm Calm - N/A   Clear
9:53 AM 50.0 °F - 42.1 °F 74% 29.97 in 10.0 mi WNW 5.8 mph - N/A   Clear
10:53 AM 52.0 °F - 42.1 °F 69% 29.98 in 10.0 mi NNW 6.9 mph - N/A   Clear
11:53 AM 53.1 °F - 41.0 °F 64% 29.97 in 10.0 mi West 9.2 mph 16.1 mph N/A   Scattered Clouds
12:53 PM 55.0 °F - 37.0 °F 51% 29.94 in 10.0 mi West 11.5 mph - N/A   Clear
1:53 PM 57.0 °F - 36.0 °F 45% 29.92 in 10.0 mi WNW 6.9 mph - N/A   Clear
2:53 PM 57.9 °F - 34.0 °F 41% 29.91 in 10.0 mi Calm Calm - N/A   Clear
3:53 PM 57.9 °F - 34.0 °F 41% 29.94 in 10.0 mi WSW 6.9 mph - N/A   Clear
4:53 PM 55.9 °F - 35.1 °F 45% 29.95 in 10.0 mi West 3.5 mph - N/A   Clear
5:53 PM 53.1 °F - 34.0 °F 48% 29.96 in 10.0 mi Calm Calm - N/A   Clear
6:53 PM 45.0 °F - 36.0 °F 71% 29.97 in 10.0 mi Calm Calm - N/A   Clear
7:53 PM 41.0 °F - 36.0 °F 82% 29.99 in 10.0 mi Calm Calm - N/A   Clear
8:53 PM 39.0 °F - 36.0 °F 89% 29.99 in 10.0 mi Calm Calm - N/A   Clear
9:53 PM 37.0 °F - 36.0 °F 96% 30.01 in 10.0 mi Calm Calm - N/A   Clear
10:53 PM 34.0 °F - 33.1 °F 96% 30.01 in 10.0 mi Calm Calm - N/A   Partly Cloudy
11:53 PM 35.1 °F - 32.0 °F 89% 29.99 in 10.0 mi Calm Calm - N/A   Mostly Cloudy